Theta_e
339 335 338 344 344 345 346 347 347 348 350 351 349 349 349 350 351 351 351 351 352 352 352 351 352 351 350 350 350 349 349 348 348 347 347 346 345 345 346 345 345 346 346 345 345 346 347 347 348 348 347 346 346 346 346 346 347 346 347 347 346 346 346 345 345 344 343 343 344 345 345 345 345 345 346 346 346 345 344 345 346 343 343 344 349
338 337 339 342 344 345 347 347 347 348 350 350 349 349 349 351 351 351 351 351 351 351 351 351 351 351 350 350 349 349 348 348 348 348 347 346 345 345 345 345 344 344 345 345 345 345 345 346 346 346 346 346 345 345 345 345 345 345 345 346 346 346 345 345 345 343 342 341 340 340 340 344 343 343 344 345 345 344 343 345 346 343 342 347 348
341 341 342 343 345 346 346 347 348 349 350 351 350 349 350 351 351 350 351 351 351 351 351 351 350 350 350 350 349 349 349 348 348 346 346 346 345 345 344 344 344 343 344 343 343 343 343 343 343 344 345 345 345 344 345 345 345 345 345 346 345 345 345 345 343 342 342 341 340 339 338 339 341 342 342 342 343 343 342 342 344 345 343 344 345
342 344 343 341 344 346 346 347 348 349 351 350 350 349 349 349 350 350 350 350 350 351 351 351 350 350 350 350 350 349 349 348 348 347 347 346 345 345 344 343 343 342 342 342 342 342 341 341 341 342 343 344 344 344 344 344 344 344 345 345 345 344 343 342 341 341 340 340 339 337 335 330 334 339 340 340 341 342 340 341 342 344 346 346 347
342 344 344 342 342 345 347 347 348 349 351 350 349 349 349 349 351 349 349 350 351 350 351 350 350 350 350 349 349 349 348 348 348 348 347 345 345 345 344 343 342 341 340 341 341 341 340 340 340 341 342 342 343 343 343 344 344 344 344 345 344 343 340 340 339 339 338 338 337 334 331 330 330 338 340 340 339 337 336 339 341 343 342 344 344
342 344 343 342 343 345 346 348 349 349 351 350 349 349 348 348 348 348 348 348 349 349 350 350 350 349 350 350 349 349 348 347 348 347 345 345 345 344 343 342 341 339 339 339 340 340 340 340 339 340 340 340 341 342 342 343 343 344 344 344 343 342 340 339 339 337 336 335 333 329 329 329 330 333 340 340 339 336 336 337 338 340 341 342 342
343 343 343 343 343 344 344 348 349 350 351 350 349 349 348 348 348 348 347 347 347 347 349 349 349 349 349 349 349 349 348 347 347 346 346 345 345 344 342 341 339 338 337 337 339 339 339 339 339 339 339 339 340 341 342 342 343 343 343 343 342 342 341 339 338 337 335 331 327 327 327 328 328 329 338 338 338 337 336 337 337 337 339 339 339
344 342 341 342 343 342 343 347 349 351 351 349 349 349 348 348 348 348 347 347 347 347 347 348 348 348 349 349 348 348 348 348 347 346 344 344 343 342 341 339 338 336 336 337 338 339 338 338 337 337 338 338 339 340 341 341 342 343 342 342 342 340 339 337 336 335 334 328 328 328 327 327 326 328 337 337 337 337 337 337 337 337 337 336 334
344 343 341 341 343 342 344 345 350 350 350 350 349 348 348 347 347 347 347 347 346 346 347 347 347 348 348 348 348 348 347 347 346 344 343 343 342 341 340 339 336 334 334 336 338 338 338 337 337 337 337 339 339 340 340 341 342 342 341 340 339 338 336 335 333 330 327 325 326 328 328 327 325 325 334 337 337 336 336 334 334 336 336 334 334
345 345 342 339 341 341 345 346 349 350 350 350 349 349 347 347 346 346 346 346 346 346 346 346 346 347 347 348 347 347 347 346 345 343 342 342 341 340 339 337 335 332 332 335 337 338 339 337 337 336 337 338 339 340 341 341 342 341 341 339 338 337 335 333 330 328 324 324 324 326 329 333 324 325 332 336 336 336 333 333 333 333 333 333 333
345 346 344 340 340 340 345 349 348 349 350 350 350 350 348 347 346 346 346 346 346 345 346 346 346 347 347 347 347 347 346 345 344 343 343 342 341 340 338 336 334 332 331 333 336 338 339 338 337 336 336 338 338 339 340 341 341 341 339 338 337 335 334 331 327 323 323 323 324 324 329 333 323 326 334 335 336 334 334 333 332 333 332 333 334
345 345 345 342 341 339 345 347 348 349 350 349 349 349 348 347 347 345 345 345 346 345 346 347 347 347 347 347 347 346 345 344 343 342 342 341 340 339 338 335 332 331 331 332 335 338 338 338 337 336 336 337 338 338 339 339 339 339 338 337 335 333 331 328 323 322 322 322 323 325 324 324 324 329 334 334 334 334 333 333 333 333 334 333 334
344 345 344 343 342 339 341 346 345 345 347 348 348 348 348 347 346 345 345 345 345 346 346 346 346 346 346 346 346 345 345 344 343 342 341 340 340 339 337 334 331 330 330 332 334 337 338 337 337 336 335 336 337 338 339 339 338 336 335 334 332 331 328 326 321 321 322 322 323 323 323 323 324 332 334 334 335 334 333 333 333 333 333 333 333
343 344 345 345 343 342 337 340 343 343 343 345 347 348 348 347 346 346 345 346 345 346 346 346 346 346 346 346 346 345 344 344 343 342 341 341 340 339 337 334 330 328 328 331 334 336 336 336 336 335 335 335 336 337 336 335 334 333 331 331 329 327 324 322 322 319 320 321 323 322 322 325 326 332 333 333 333 334 333 332 332 332 332 332 332
343 344 343 344 343 341 338 334 341 342 344 344 342 345 347 347 347 347 346 345 345 345 346 346 346 346 346 346 345 345 344 343 343 342 341 341 341 339 337 334 330 327 327 330 333 334 334 335 335 334 334 334 334 334 332 330 328 327 327 326 325 323 321 316 317 317 318 320 320 322 321 322 332 332 332 333 332 332 332 332 331 331 331 331 331
336 342 342 342 342 341 341 339 335 336 340 342 343 344 346 347 348 348 348 346 345 345 346 345 346 345 345 345 345 344 344 343 342 342 340 340 340 338 336 334 330 327 328 330 332 332 332 332 332 331 331 332 331 330 327 323 322 322 321 321 320 319 317 315 312 313 315 316 318 320 322 323 332 333 333 332 333 331 331 332 332 331 330 330 330
326 329 332 330 331 334 337 341 337 332 333 335 337 341 342 345 346 347 346 347 347 347 346 346 345 345 344 344 344 344 343 342 341 341 340 340 339 337 334 333 331 328 328 329 329 329 328 327 328 328 328 329 329 327 323 321 320 318 317 316 315 313 311 310 307 309 313 315 316 319 322 327 332 335 334 335 335 332 331 331 332 331 331 330 330
321 323 323 325 324 326 327 329 335 339 339 333 331 336 339 342 343 343 344 344 345 346 345 345 344 344 343 342 341 341 342 342 341 341 340 339 338 337 334 332 332 329 327 327 326 325 325 325 326 326 325 326 326 325 322 321 319 317 315 313 312 311 309 307 302 306 310 315 314 319 322 329 330 334 337 338 338 338 336 332 331 332 331 331 331
319 320 320 319 320 322 322 325 327 333 340 338 337 335 333 337 338 339 341 342 343 342 343 340 340 341 340 338 337 336 335 336 337 339 338 336 335 334 334 332 331 331 328 327 326 325 323 322 324 324 324 323 323 323 321 320 319 317 315 312 309 308 307 304 303 306 309 311 313 317 323 328 328 332 333 335 335 336 337 337 336 336 336 336 335
318 316 319 317 318 318 319 322 324 324 330 338 338 338 331 331 335 334 335 337 339 340 338 335 333 333 333 332 330 331 329 330 329 332 332 335 333 331 333 332 331 330 329 328 327 326 324 321 320 321 322 322 322 321 320 319 317 316 313 311 307 305 299 300 302 305 308 312 314 317 327 328 330 329 331 332 334 333 334 334 334 334 334 334 334
314 315 316 316 316 317 316 318 321 323 326 329 339 339 335 328 331 329 329 332 334 334 334 326 324 323 325 323 326 334 333 332 332 330 325 328 325 327 332 333 331 329 328 328 327 326 325 323 320 320 319 317 314 315 316 317 315 314 311 308 305 298 298 299 302 306 308 311 314 320 327 328 329 331 331 331 331 332 332 332 332 332 332 333 333
312 313 313 313 313 315 316 317 318 320 322 325 334 339 335 332 337 335 333 330 327 325 329 332 330 330 321 328 334 332 334 333 332 330 327 326 326 325 329 333 331 330 329 329 328 326 325 325 322 321 319 315 310 301 303 309 311 310 308 305 299 298 298 299 302 305 309 312 315 322 326 327 328 330 329 329 329 329 329 330 330 331 331 331 331
311 311 312 312 312 313 314 315 317 318 320 324 325 338 337 336 338 336 333 327 329 329 333 332 333 331 331 333 332 333 334 333 331 329 327 323 326 325 328 330 331 329 330 330 330 327 325 324 322 320 317 313 305 303 302 301 301 306 304 300 299 299 299 301 303 305 308 313 315 325 326 326 327 329 329 329 328 328 328 328 328 329 330 330 329
309 310 310 311 312 312 312 314 316 317 318 322 322 332 338 337 338 337 334 331 332 331 332 334 333 333 333 333 333 332 333 333 328 324 326 328 325 323 326 326 327 325 324 322 325 325 324 323 320 316 312 308 305 305 304 303 302 302 301 301 300 300 300 301 303 305 308 312 316 324 325 326 327 326 327 328 327 327 327 328 328 327 328 328 328
307 308 308 309 310 310 310 312 315 317 319 321 323 323 333 337 337 337 335 335 333 332 333 333 333 333 333 333 334 332 333 332 330 328 329 329 328 328 326 326 324 322 319 316 314 313 312 310 310 309 307 307 307 306 305 305 304 303 302 301 300 299 300 300 301 303 305 309 313 320 322 325 327 328 328 328 327 327 327 327 326 327 325 326 327
303 306 307 307 308 309 310 311 313 317 320 320 321 322 327 335 336 336 335 335 334 333 333 332 332 332 332 333 333 332 332 331 330 329 330 330 329 328 326 327 324 321 318 316 314 313 311 310 309 308 307 307 307 306 306 305 303 302 301 300 299 299 298 298 297 297 299 303 309 316 319 321 324 326 328 327 327 326 326 326 325 325 325 325 326
300 302 303 304 305 306 309 312 313 317 320 322 322 327 329 333 336 336 335 333 334 333 333 332 332 331 330 331 332 331 330 329 328 326 326 328 328 327 326 327 325 322 319 318 317 315 313 312 310 309 308 308 308 307 307 305 303 301 300 299 298 297 296 295 294 293 294 297 304 311 315 318 321 323 324 325 326 326 326 326 327 327 325 326 325
301 302 301 302 303 304 306 310 314 316 319 321 328 328 329 329 331 334 333 330 331 330 329 330 330 331 330 329 328 329 330 328 327 327 324 324 325 326 326 326 326 324 322 322 319 317 315 314 313 311 310 310 309 308 306 305 303 301 299 298 297 296 295 294 293 292 291 292 296 305 310 314 316 319 322 324 325 326 326 326 327 328 327 327 325
302 301 302 302 304 305 306 308 310 315 320 324 327 327 325 325 326 326 326 325 326 325 327 327 327 327 329 329 328 329 328 327 326 324 323 323 323 324 324 323 323 323 323 322 320 318 317 315 314 313 312 311 310 308 306 303 302 300 299 298 297 296 295 294 294 293 292 291 291 298 306 309 313 315 317 320 323 325 326 326 326 326 326 327 326
302 303 303 304 306 311 310 309 310 317 322 326 325 323 322 322 321 320 321 320 322 323 324 324 324 324 325 327 327 327 326 325 323 322 322 321 320 320 320 319 319 320 321 320 320 319 317 316 315 313 312 311 309 308 305 303 302 300 299 298 297 296 295 295 294 293 293 292 291 292 300 304 307 312 314 315 318 321 322 322 324 325 326 327 325
303 304 306 308 310 311 310 310 315 318 323 321 320 319 318 317 318 318 318 318 319 319 320 321 321 321 321 323 324 324 323 322 321 320 318 317 318 318 317 317 317 318 319 317 317 317 316 314 313 311 310 309 308 307 305 302 301 300 299 298 296 296 296 296 295 294 293 292 290 290 292 298 302 305 309 313 314 315 318 319 320 321 323 324 325
302 304 307 308 310 310 311 312 316 319 318 317 316 316 315 315 315 315 315 315 316 317 317 317 317 319 320 320 321 321 320 320 318 317 316 315 314 314 314 314 314 315 315 314 312 312 310 309 308 308 308 307 306 305 304 302 301 300 298 297 296 296 296 295 294 292 292 291 290 289 289 291 296 299 303 308 311 312 314 316 317 317 318 319 321
303 305 306 307 309 309 310 312 316 316 314 314 315 314 314 314 313 312 313 314 314 314 315 314 314 314 315 317 317 317 317 316 315 314 313 313 312 311 310 309 310 310 310 309 308 307 306 305 305 306 306 306 305 304 304 302 300 298 297 296 296 296 295 293 292 291 290 289 289 288 288 289 288 293 296 301 306 308 310 313 314 315 315 316 317
303 306 307 307 308 310 311 312 313 313 312 312 312 312 311 311 311 311 311 312 312 312 310 311 311 311 311 311 313 314 314 314 313 312 312 310 309 308 306 305 304 304 304 304 304 304 304 304 304 305 305 305 304 303 301 299 299 298 297 296 295 294 293 291 290 289 289 288 287 287 287 287 287 287 287 293 298 304 307 309 310 312 313 313 314
303 305 306 307 307 308 310 310 310 310 310 310 309 309 309 309 308 308 308 309 310 309 310 308 308 309 310 309 309 309 310 311 311 310 309 308 306 305 303 303 302 301 300 301 301 301 302 302 303 303 304 304 304 303 300 298 297 296 295 294 292 291 289 288 287 286 286 286 286 286 286 286 286 286 286 285 290 296 302 305 307 309 310 311 311
303 305 306 306 306 307 308 308 307 307 307 307 306 305 306 306 305 304 304 305 306 306 307 305 305 306 307 308 307 307 307 308 308 308 306 305 304 302 301 301 300 299 299 299 300 299 299 300 302 304 302 302 301 300 299 296 295 293 292 291 289 289 287 286 285 285 285 284 284 284 284 285 285 285 287 284 284 288 297 299 303 306 307 308 309
305 305 305 305 305 306 306 306 305 304 304 303 303 303 302 302 302 303 302 302 302 303 303 304 304 304 303 303 305 305 304 304 305 304 303 302 301 300 300 299 299 298 296 296 297 298 298 297 297 299 302 300 298 296 295 294 293 291 290 289 288 287 285 285 285 284 285 284 283 283 283 283 285 287 283 283 283 284 289 295 296 299 302 304 306
305 305 305 305 305 305 304 304 304 303 302 301 301 301 300 300 298 298 299 298 298 299 299 300 300 301 301 299 300 300 301 301 301 302 301 300 299 298 297 296 296 295 295 294 294 296 295 296 293 294 297 297 295 293 292 291 291 290 288 287 286 285 284 284 284 286 283 283 283 282 282 282 282 282 282 282 283 283 283 287 291 292 295 299 302
305 305 305 305 304 303 302 302 302 301 300 299 298 298 298 298 298 297 297 296 296 297 298 296 296 298 299 298 298 298 298 299 299 299 297 296 295 295 294 293 293 292 292 291 291 292 292 293 292 291 291 292 292 290 290 289 288 287 286 285 285 285 284 284 283 282 281 282 284 285 283 281 281 282 282 282 282 282 283 283 283 283 285 295 298
304 304 304 304 303 302 301 301 300 300 300 299 299 298 298 298 296 297 296 295 294 294 295 295 294 294 295 295 296 296 297 296 296 296 295 294 293 292 292 292 292 291 291 289 289 291 291 291 291 290 289 289 288 288 288 287 286 286 286 285 284 284 283 283 282 282 282 281 281 282 281 281 281 281 281 281 282 282 282 282 284 283 283 287 293
303 303 303 303 302 301 301 299 299 299 299 299 299 300 299 298 296 296 293 293 292 292 292 292 292 293 294 295 295 295 295 295 294 294 292 292 291 291 290 290 290 290 289 288 287 288 289 290 290 290 290 288 285 284 284 286 286 285 285 285 284 284 285 283 282 281 281 280 280 280 280 281 280 280 280 280 281 281 281 281 282 282 282 282 283
302 302 302 302 302 301 301 299 299 299 299 300 299 299 299 299 295 292 291 292 293 291 290 291 292 293 293 292 293 293 293 293 292 292 291 291 290 289 289 288 288 288 288 287 286 288 287 288 288 286 284 285 282 282 283 285 286 283 283 283 284 284 283 282 282 281 280 280 280 280 280 280 280 280 280 280 280 280 280 281 281 281 281 281 281
302 302 303 302 301 301 300 299 299 299 300 299 297 294 295 295 294 293 291 289 291 290 289 290 292 291 291 291 291 291 291 291 291 291 290 289 288 288 287 287 287 287 285 284 284 284 284 285 287 287 284 282 283 283 282 282 284 283 283 283 282 281 286 279 280 280 280 279 280 280 280 279 279 279 279 279 279 279 280 280 280 281 280 280 280
301 301 301 301 301 301 300 299 299 299 298 296 294 292 291 291 291 291 291 290 288 290 290 290 290 291 289 289 289 290 289 289 289 289 288 287 287 287 286 285 284 284 284 284 283 282 283 283 284 286 286 282 280 281 282 281 283 286 285 284 282 282 280 278 277 280 278 278 279 278 279 278 278 279 279 279 279 279 279 280 280 280 280 280 279
301 301 301 301 301 300 300 300 299 297 295 293 292 291 290 289 289 289 289 288 289 289 289 287 287 288 287 287 287 288 288 288 288 288 287 286 286 285 284 283 283 283 283 283 282 281 281 281 281 282 282 283 279 279 282 282 280 281 285 278 278 279 278 276 276 280 277 277 277 277 280 278 278 279 278 278 278 279 279 279 279 279 279 279 278
301 300 300 301 301 301 300 298 297 294 293 292 292 292 291 289 289 289 288 288 287 288 288 286 286 286 285 285 286 287 287 287 286 286 285 285 283 283 283 283 283 283 283 282 282 282 281 281 281 281 281 281 282 280 279 282 281 281 280 279 279 279 276 277 275 277 276 276 277 277 278 278 277 278 278 278 278 278 280 279 278 278 278 278 278
301 301 300 300 301 300 298 296 295 293 292 291 292 292 291 291 292 292 291 290 288 285 285 285 285 284 285 285 285 285 285 285 284 283 283 283 283 283 283 283 282 282 283 282 282 281 281 281 281 281 281 283 281 280 280 280 279 280 280 280 280 278 276 277 276 275 276 276 276 277 277 278 277 277 278 277 277 277 278 279 278 278 277 277 277
301 299 298 299 299 297 296 295 293 292 292 292 292 292 292 292 293 291 291 290 288 284 284 284 284 284 284 284 283 283 282 282 282 282 282 283 282 282 282 282 282 282 283 282 281 281 281 282 281 281 280 280 280 280 277 277 278 278 279 278 278 278 277 277 274 276 275 275 275 276 275 276 276 275 276 277 277 277 277 277 278 277 276 276 276
300 298 296 296 297 296 295 294 293 292 291 292 292 292 293 293 291 290 287 286 285 284 284 285 284 284 282 281 281 281 281 281 281 282 281 282 283 282 281 281 281 281 282 281 281 281 280 280 280 280 280 280 280 279 280 278 279 278 278 277 277 277 277 277 276 276 275 273 273 274 274 275 275 275 275 276 277 276 276 277 278 277 279 276 276
299 297 295 295 294 294 294 293 292 292 292 292 292 292 292 291 290 288 285 284 284 284 284 283 282 281 281 280 280 280 280 281 281 281 281 281 281 281 281 281 281 281 281 280 280 280 280 280 280 280 279 279 278 279 279 277 278 277 277 278 277 276 277 276 275 274 275 273 275 274 274 273 274 275 276 276 276 276 275 276 276 275 275 275 275
297 296 294 294 293 293 293 292 292 291 291 292 292 291 290 291 289 287 285 284 284 283 282 281 281 280 280 280 280 280 280 280 280 280 280 281 281 281 281 280 281 281 280 280 279 279 279 279 279 279 279 279 279 279 279 279 278 278 277 277 276 276 276 275 275 275 273 273 272 273 273 274 274 273 275 276 277 275 275 275 275 275 275 275 275
Wind_Speed
5 5 4 7 8 7 7 7 6 6 10 9 10 9 10 10 11 11 10 11 12 12 12 14 15 15 15 16 17 17 17 17 17 17 17 17 17 17 17 16 16 16 16 16 15 15 15 14 15 15 16 17 17 17 17 17 17 17 17 18 18 19 19 19 19 18 18 19 20 21 21 20 20 19 19 19 20 19 18 18 16 12 10 12 18
7 5 3 5 8 7 7 6 5 6 9 10 10 9 9 10 10 10 11 11 12 12 13 13 15 15 15 16 16 16 17 17 16 16 16 16 16 16 16 16 16 16 16 15 15 15 15 15 15 15 15 16 17 17 17 17 17 17 17 17 19 19 19 19 18 18 18 18 18 19 19 20 20 19 19 20 19 20 19 19 19 10 7 17 19
5 4 3 4 7 8 7 7 5 7 9 10 10 8 9 9 9 10 11 11 11 11 12 13 14 14 14 15 16 16 16 16 16 16 16 16 15 15 15 15 15 15 16 16 16 15 15 15 15 15 15 15 17 18 16 16 16 17 18 18 20 20 19 18 18 18 17 17 16 15 16 18 20 19 19 19 20 20 20 20 20 18 12 19 17
7 4 3 3 3 4 7 6 6 7 9 10 9 8 9 9 10 10 11 12 11 12 12 12 13 14 14 14 15 15 16 16 16 16 16 15 15 15 15 15 16 16 16 16 16 16 15 15 15 15 15 16 17 18 17 16 16 17 18 19 19 19 18 17 17 17 16 16 15 11 8 7 11 19 19 19 20 21 20 20 20 21 22 21 22
7 5 4 3 2 4 6 6 6 7 9 9 8 7 8 10 9 9 10 12 12 12 12 12 13 14 14 14 14 15 15 16 16 16 15 15 15 15 15 16 16 16 16 16 16 15 16 15 15 15 15 16 17 18 18 17 17 18 18 19 18 18 18 17 16 16 15 15 14 9 7 7 7 17 19 20 20 20 19 20 21 21 20 22 21
7 7 4 4 3 4 7 7 8 9 9 9 8 7 7 9 10 9 9 10 12 13 11 12 12 13 14 14 14 15 15 15 16 16 15 15 15 16 16 15 16 16 15 16 16 16 15 15 15 16 16 17 17 17 17 17 18 18 19 18 18 18 17 17 16 15 14 13 11 7 7 7 6 8 20 19 19 20 19 19 20 20 21 22 20
8 6 5 5 4 5 5 8 10 10 10 10 8 8 8 8 8 9 9 10 11 12 12 12 12 12 13 13 14 15 15 15 16 16 16 15 16 16 15 15 15 15 15 16 16 16 15 16 16 16 16 16 17 17 17 17 18 19 19 19 19 17 16 16 15 15 13 7 6 6 6 6 5 5 19 19 19 20 20 19 19 19 20 20 21
3 5 5 5 5 7 11 9 10 10 10 9 8 8 8 8 7 8 9 10 10 10 11 11 12 12 13 14 14 15 15 16 16 16 15 15 15 15 14 14 15 15 15 16 16 16 16 17 17 16 16 16 16 17 17 17 18 18 18 18 17 16 15 15 14 14 14 6 5 6 6 6 5 5 17 19 19 19 19 19 19 19 20 20 18
4 3 4 4 4 10 10 8 10 10 11 10 9 8 8 9 8 8 9 9 10 9 11 11 11 12 13 14 14 15 15 15 16 16 15 15 14 14 14 14 14 14 15 16 16 16 16 16 17 17 17 17 16 16 17 17 18 19 18 17 16 15 14 13 12 11 7 5 6 5 7 5 5 5 15 19 20 19 19 15 13 19 20 19 18
3 4 3 3 4 9 8 8 10 10 10 10 9 8 8 8 9 9 9 9 9 9 10 10 10 11 12 13 13 14 14 15 16 15 14 14 13 13 14 14 14 14 15 15 16 17 17 17 17 17 17 17 17 17 17 18 18 18 17 17 15 14 14 13 13 9 6 6 7 7 9 10 5 6 15 19 20 19 17 16 15 16 16 18 20
4 4 3 2 4 8 8 9 8 8 9 9 9 9 8 7 8 8 9 9 9 10 9 10 10 11 11 12 12 13 14 14 15 14 14 13 13 13 14 14 14 14 15 15 16 16 17 17 17 18 18 17 17 17 18 19 18 17 17 16 15 15 14 13 10 7 7 7 6 6 7 10 5 6 17 19 19 20 17 18 18 19 20 20 21
5 4 2 1 1 5 6 7 7 9 8 8 9 9 9 7 7 8 8 9 9 9 9 10 10 10 11 12 12 13 13 14 14 13 13 13 13 13 14 14 14 15 15 15 16 16 17 18 17 18 18 18 18 18 19 19 18 18 17 16 15 14 14 13 8 8 7 7 7 6 6 5 5 12 19 18 19 19 19 19 19 20 20 20 21
5 5 2 3 3 3 1 5 6 3 6 7 8 9 9 8 8 8 8 8 9 9 9 9 10 10 10 11 12 12 13 13 13 13 12 12 13 14 14 14 15 15 15 16 16 16 17 18 18 18 18 18 18 19 19 19 18 17 16 16 15 14 14 14 8 8 7 7 7 7 6 5 6 18 18 18 18 18 19 19 19 19 19 20 19
4 5 3 3 3 5 1 4 8 8 3 4 5 7 9 8 8 8 8 7 8 9 8 9 9 10 11 11 11 12 13 13 13 13 12 12 13 13 13 14 14 14 15 15 16 16 17 18 19 19 18 18 19 19 19 18 18 17 16 16 16 15 14 10 10 8 8 8 7 6 5 5 9 19 19 18 18 18 18 18 18 18 18 19 19
5 5 4 3 3 4 5 4 4 10 8 7 9 7 9 9 8 7 8 8 8 8 8 8 8 9 9 10 10 11 12 12 13 12 12 12 12 13 13 13 14 15 15 16 16 17 17 17 18 19 19 19 19 19 18 18 18 17 17 17 16 16 14 8 8 8 8 8 7 7 7 4 16 18 19 19 19 18 19 19 19 19 18 18 18
5 4 4 3 4 4 3 3 1 4 7 6 4 5 7 8 7 6 7 8 8 8 7 8 8 8 8 9 11 11 11 12 12 12 11 11 12 12 13 14 15 15 16 16 17 17 17 18 18 18 18 18 18 18 18 18 18 17 17 16 16 16 14 9 7 8 7 8 7 7 6 5 17 18 18 19 18 18 18 19 20 19 18 19 19
7 5 7 6 6 6 4 2 2 4 4 5 5 4 5 7 6 6 6 7 6 6 7 7 8 8 7 8 8 9 9 11 11 12 11 11 12 12 13 14 15 16 17 17 17 17 18 18 18 18 18 18 18 18 18 18 18 18 18 17 16 16 15 10 8 7 7 8 7 8 7 7 16 19 18 18 18 16 15 18 18 18 18 18 18
7 7 6 4 6 5 5 5 4 2 3 4 6 4 4 3 6 5 6 6 6 6 5 6 7 7 5 5 7 8 9 10 10 10 11 11 11 10 12 14 15 16 17 17 17 17 17 17 17 17 18 18 18 18 18 19 19 18 18 17 17 17 15 12 8 7 8 8 9 8 6 13 16 18 20 21 22 21 20 17 17 17 16 17 17
7 6 6 4 5 5 6 6 6 5 2 3 3 5 3 3 5 5 5 6 7 6 6 7 7 7 7 6 7 9 8 9 9 9 9 9 9 10 12 13 15 15 16 16 17 17 17 17 17 17 17 18 18 18 18 18 17 17 17 16 15 14 14 9 8 8 8 7 7 8 9 16 15 18 19 20 21 23 22 21 21 21 20 20 20
6 5 6 4 3 6 5 5 6 5 4 1 3 4 5 4 2 7 7 5 5 6 7 8 8 7 8 8 8 7 7 7 10 7 9 9 9 8 10 11 14 14 15 16 16 16 16 17 17 17 17 17 17 17 17 17 16 16 16 16 14 13 10 7 8 9 8 7 7 7 12 17 18 17 17 18 20 22 23 23 21 20 20 21 20
4 4 4 4 4 7 7 5 5 5 4 4 1 4 4 4 5 7 7 7 6 6 8 10 9 7 7 7 6 5 4 5 6 5 7 6 9 10 9 10 12 13 13 14 15 15 16 16 17 17 17 16 15 16 16 16 16 16 16 14 13 10 8 8 8 8 8 7 7 8 16 16 18 19 18 19 21 21 20 22 22 23 22 23 23
2 3 3 5 5 6 6 5 4 4 4 3 2 3 3 3 3 4 3 5 4 6 6 6 7 5 6 5 4 4 4 4 4 5 4 5 7 9 9 9 10 10 11 13 14 15 16 16 16 16 16 15 13 8 8 12 15 15 14 13 10 8 8 9 9 8 9 8 7 11 18 19 19 20 19 19 19 21 20 20 21 21 22 23 23
3 4 4 7 5 4 4 3 4 5 6 5 4 2 5 3 3 3 3 3 2 3 3 7 4 5 4 4 4 3 4 4 4 4 5 6 8 9 10 10 9 9 10 13 13 15 16 16 16 15 14 13 9 7 7 7 8 12 11 10 8 8 9 9 8 8 8 8 7 15 17 19 20 20 20 19 19 19 20 20 19 21 22 22 22
0 2 4 3 2 4 4 4 3 4 4 3 3 3 3 2 2 3 4 5 3 3 4 5 5 4 5 4 4 3 4 3 5 7 7 4 4 8 11 11 11 11 11 8 10 12 14 14 14 12 8 6 7 7 7 7 7 7 8 8 8 9 9 8 8 8 8 10 10 20 20 21 21 21 21 20 21 19 19 20 20 20 21 22 21
1 2 1 3 5 4 3 3 3 3 3 3 3 4 2 3 3 4 4 4 4 4 4 4 5 5 4 3 5 4 4 4 4 4 5 5 4 5 5 5 6 6 7 6 6 7 7 7 7 7 6 6 7 7 7 8 8 8 8 8 9 9 9 8 8 8 8 9 12 20 21 22 21 21 20 21 21 20 20 20 21 21 21 22 22
2 2 3 4 5 5 3 3 4 3 2 2 3 4 1 3 3 4 4 4 4 4 4 4 4 5 4 4 5 5 4 4 3 3 5 5 5 4 4 4 6 5 5 6 6 6 6 6 6 7 6 6 7 7 7 7 8 8 8 8 9 9 9 8 9 9 8 9 12 21 21 21 23 23 21 21 20 20 20 20 20 20 21 21 21
1 1 2 2 3 4 5 4 3 2 3 2 2 2 1 1 3 4 4 4 3 4 4 3 4 4 4 4 4 4 4 3 3 4 2 2 4 4 4 4 5 5 4 6 7 5 6 7 7 6 6 7 7 7 8 8 8 9 9 9 9 9 9 9 9 9 8 9 11 21 21 22 23 22 21 21 20 20 20 19 19 19 19 20 21
0 2 3 3 4 4 3 3 4 3 2 2 0 2 2 2 1 4 4 4 4 4 2 5 3 5 5 4 5 3 4 4 4 4 5 4 3 6 4 5 5 4 4 6 7 6 6 6 7 6 7 7 9 7 8 8 8 8 9 8 9 9 9 9 9 9 8 9 10 17 21 22 23 23 24 22 22 21 21 22 22 21 21 20 20
1 2 2 3 4 3 3 4 3 4 3 1 1 2 3 4 4 2 3 6 5 2 6 4 6 3 5 6 6 4 4 5 4 5 5 6 6 4 5 5 5 4 4 5 7 6 6 6 6 7 6 7 8 8 8 8 7 7 8 8 8 9 9 9 9 9 8 8 9 14 21 22 22 23 24 24 24 23 23 24 24 23 23 23 23
1 1 2 3 3 3 4 4 3 4 3 3 3 2 4 5 4 2 2 5 5 5 2 6 3 5 1 7 7 6 5 5 5 4 5 5 5 5 5 5 6 4 5 6 5 6 6 6 7 7 7 7 8 7 8 8 8 7 7 8 8 9 8 9 9 8 8 8 8 10 20 21 23 23 24 24 24 24 24 25 25 23 23 23 24
1 1 2 2 2 3 4 3 3 5 3 4 4 2 3 5 4 2 4 5 5 1 4 5 3 6 2 3 7 7 6 6 6 4 6 5 5 5 5 4 6 5 6 7 5 6 6 6 7 7 7 7 7 7 8 8 8 8 7 8 8 8 8 8 9 9 9 8 8 8 12 20 22 23 23 24 24 24 24 24 24 24 24 25 25
2 2 2 2 3 3 4 3 3 2 3 5 5 4 2 6 4 4 5 5 5 1 5 4 3 6 5 3 6 6 6 6 7 6 6 7 6 6 5 6 6 6 6 7 7 6 7 7 8 8 8 8 8 7 8 8 8 7 6 9 8 9 9 8 9 9 8 8 8 8 8 10 18 23 23 23 24 24 24 24 24 24 24 23 24
2 2 2 2 4 3 2 3 1 3 3 5 5 4 3 4 6 4 5 6 5 2 5 5 4 5 6 5 6 7 5 7 7 7 8 7 7 7 6 6 6 6 6 8 9 7 7 8 8 7 8 9 9 8 7 8 9 7 7 9 9 10 8 8 8 8 8 7 7 7 8 9 9 15 21 22 23 24 24 24 24 24 24 24 23
2 2 1 3 1 2 1 1 3 4 4 4 5 5 3 2 7 3 6 7 5 3 5 5 5 5 7 6 5 7 7 6 8 8 7 7 6 7 7 6 6 6 5 5 7 6 7 8 7 8 7 8 9 8 8 8 8 7 8 9 9 9 8 9 8 7 7 8 6 8 8 8 8 8 9 18 22 22 23 23 23 23 24 24 24
2 2 2 2 1 1 1 2 4 5 5 5 6 6 4 2 6 5 5 7 4 4 3 5 5 5 7 6 5 5 7 7 7 8 7 7 7 7 7 6 6 7 7 5 7 6 7 7 6 10 8 8 8 8 8 8 8 9 9 8 9 8 8 8 6 7 8 6 8 8 8 8 8 8 8 8 13 20 23 23 23 23 24 24 24
3 2 1 1 1 2 2 3 5 6 5 6 6 5 6 3 6 5 5 7 6 5 4 4 4 6 7 6 5 6 7 7 7 7 8 7 7 7 6 6 7 7 6 6 6 9 7 7 4 8 11 8 9 8 7 9 9 10 8 8 8 7 8 6 7 7 6 7 8 8 8 8 8 8 8 8 8 11 22 22 23 24 24 25 25
2 3 3 2 2 3 4 4 6 5 6 6 7 6 7 4 7 5 7 7 6 5 4 3 5 7 7 5 4 4 8 7 7 6 8 8 7 7 6 6 6 8 7 5 7 5 8 8 6 4 8 10 9 10 8 8 9 9 9 9 7 7 7 6 6 6 6 9 8 8 8 8 7 8 8 8 8 8 14 21 20 22 23 23 24
2 3 4 4 4 4 4 4 5 5 4 5 6 6 6 6 5 6 8 6 6 5 4 4 5 7 7 5 5 5 7 8 7 6 8 8 8 7 6 6 7 7 8 6 7 5 6 8 9 6 6 10 9 10 9 8 8 9 8 8 7 7 6 7 6 6 8 8 7 8 6 6 8 8 8 8 8 8 8 13 18 18 21 22 23
3 5 4 4 5 5 4 5 5 6 5 5 7 7 7 6 6 8 9 6 6 7 5 5 4 7 7 5 5 6 6 8 7 7 9 8 8 7 6 5 6 7 8 7 7 7 7 7 11 10 9 8 9 8 9 9 9 8 8 7 6 7 6 6 6 7 7 6 6 6 6 8 7 8 8 8 8 8 9 8 8 8 11 22 22
5 5 5 5 5 5 4 4 4 6 5 6 4 6 6 6 10 8 9 7 7 7 6 6 4 6 7 5 6 7 6 7 7 8 9 8 8 6 7 5 6 6 8 9 7 7 10 12 10 13 12 10 7 6 7 11 9 9 8 7 6 6 7 7 8 7 6 6 6 6 7 6 7 7 7 7 7 8 8 8 8 8 8 14 22
6 6 7 7 6 6 8 7 5 6 5 7 4 6 7 6 7 6 7 5 4 3 5 4 4 5 7 6 7 7 7 7 7 7 8 8 7 6 7 7 6 7 9 9 7 8 7 10 9 8 12 12 6 4 3 3 11 7 6 6 7 5 6 7 8 7 7 6 6 7 6 8 8 8 6 6 8 8 8 8 8 7 8 7 10
7 8 8 8 8 8 9 7 6 5 5 6 4 5 2 1 7 6 7 5 6 4 5 4 4 7 7 5 6 7 7 7 7 7 7 8 8 7 7 7 7 8 8 8 7 7 8 8 10 9 4 6 4 3 3 1 3 6 7 3 4 3 4 7 7 7 6 6 5 7 7 7 8 6 6 7 8 8 7 7 7 7 7 7 8
8 9 8 9 8 8 7 8 7 6 4 5 4 5 4 5 5 6 4 6 5 4 4 4 5 9 8 4 7 6 7 7 6 7 8 7 7 8 8 7 7 8 10 8 7 7 5 6 5 11 8 4 5 4 4 1 5 3 3 6 2 1 0 3 2 4 5 5 6 7 6 6 7 6 6 7 7 7 6 6 7 7 7 8 7
8 8 8 10 8 8 8 8 8 7 6 5 7 6 7 8 8 8 7 6 6 7 8 4 6 10 8 5 8 7 7 7 6 7 7 7 7 9 7 7 7 5 8 9 7 6 6 6 7 6 10 7 3 5 5 3 3 6 2 1 2 3 2 1 2 2 2 4 7 6 5 5 6 6 6 7 6 5 5 5 7 6 6 6 6
9 10 9 9 7 9 10 9 8 7 7 8 8 7 8 8 8 10 9 9 7 8 8 5 4 6 5 6 7 6 7 7 6 7 7 8 7 7 8 7 8 6 7 8 7 6 5 4 4 6 4 9 5 3 6 6 7 3 5 3 1 1 1 1 1 1 4 3 4 4 5 6 6 6 6 5 4 5 4 5 5 5 6 6 6
10 9 8 8 8 9 9 8 7 7 8 8 10 10 10 12 10 10 7 6 7 6 7 7 7 8 6 2 6 6 6 7 6 7 7 7 8 7 7 9 8 7 6 8 7 6 6 7 4 6 7 3 10 6 5 4 7 8 6 3 0 2 4 1 2 1 1 0 2 2 6 6 4 6 7 7 7 6 5 5 5 6 6 6 6
10 8 8 8 9 9 9 8 8 8 8 10 11 9 9 7 10 11 13 13 12 3 3 4 4 5 4 7 6 6 5 7 5 5 6 6 7 7 8 8 8 7 6 8 8 8 6 5 4 7 6 6 7 9 8 5 4 7 6 5 8 6 3 4 1 2 1 2 3 5 5 7 4 5 6 5 4 5 5 4 5 5 5 5 6
9 9 9 8 10 9 9 9 7 8 9 9 9 8 9 8 7 6 6 7 8 11 8 7 5 4 7 7 6 5 5 4 6 5 5 6 7 8 7 7 8 6 7 8 8 6 7 5 6 7 6 5 5 10 5 1 6 2 2 6 6 6 7 8 3 2 3 2 2 4 1 5 5 3 3 5 5 4 4 4 4 4 5 5 5
10 11 9 8 9 9 9 9 9 9 9 10 9 7 6 7 7 8 8 5 8 8 8 6 7 7 9 5 6 5 5 4 4 6 5 6 6 7 7 8 9 7 8 8 7 6 7 7 7 7 8 7 6 5 8 6 7 5 5 6 8 7 7 6 3 5 2 2 0 1 4 4 2 1 3 2 4 3 3 3 3 4 5 5 6
8 7 7 8 8 9 9 10 10 8 8 9 8 7 6 7 8 7 11 11 8 7 5 7 8 7 8 6 5 6 5 5 4 4 6 5 6 6 8 9 9 8 7 8 8 8 7 8 7 8 7 9 6 7 7 6 6 3 3 5 5 3 4 4 4 3 3 3 3 1 2 4 7 3 1 2 2 2 3 3 4 4 5 5 6
7 9 9 9 8 9 10 11 10 9 9 10 9 9 7 7 8 11 13 12 8 12 11 7 7 6 8 7 6 6 5 6 5 5 5 5 6 6 8 8 7 7 8 7 7 8 7 8 8 8 8 9 7 9 8 6 6 6 5 4 5 4 4 3 3 2 3 2 3 2 2 2 2 5 4 5 3 1 3 3 3 3 4 5 4
Wind_Direction
175 176 171 161 148 143 131 131 131 146 134 134 110 113 112 92 96 99 106 109 99 92 95 101 98 94 94 90 87 85 83 80 78 76 73 70 67 64 60 59 58 58 58 58 57 58 58 58 58 58 59 61 63 65 66 65 65 68 67 67 66 65 62 59 55 53 50 48 47 45 44 43 43 43 43 42 38 36 36 39 40 33 34 36 40
166 168 179 161 153 138 137 140 138 147 137 120 115 115 108 97 93 105 106 106 104 105 102 100 97 97 96 92 90 89 85 82 80 76 74 70 67 65 63 60 58 57 56 57 58 58 59 59 60 60 59 62 66 69 69 69 72 74 72 70 69 67 64 59 56 56 52 50 48 46 43 44 44 44 43 41 40 36 33 35 38 38 33 38 41
138 143 136 153 156 146 143 146 161 157 143 118 116 114 109 106 108 105 100 97 102 101 98 99 102 103 102 100 96 92 88 85 80 77 74 70 66 63 62 61 58 57 56 55 56 58 58 60 62 62 60 62 67 70 71 75 79 78 75 72 71 68 65 58 57 56 53 50 47 45 40 40 43 45 45 42 41 39 35 35 35 36 29 37 41
141 148 127 147 189 162 166 176 163 160 125 113 115 118 115 114 112 102 104 101 103 102 99 100 101 102 100 99 97 95 92 87 81 77 73 69 65 62 58 56 55 56 57 56 56 58 59 62 63 63 62 64 68 72 75 81 83 81 77 74 72 69 65 62 59 55 52 49 46 43 39 32 38 45 48 47 43 40 36 36 37 33 29 28 31
145 151 144 155 168 184 180 172 160 149 121 119 122 122 120 117 112 105 108 108 104 101 100 101 102 102 99 97 96 95 93 88 83 78 72 67 62 56 54 53 54 54 56 58 58 58 60 62 63 64 64 66 70 73 78 85 87 86 83 79 74 70 68 64 59 54 50 47 45 43 37 36 36 47 50 50 47 42 38 36 35 34 30 28 28
152 151 149 157 168 185 190 162 152 152 129 129 131 123 119 118 114 111 112 113 109 105 101 99 102 103 104 103 99 96 93 89 85 79 72 64 58 53 51 51 53 55 56 59 59 59 60 61 63 67 68 70 72 75 82 86 87 85 83 81 77 73 69 65 60 54 49 45 42 41 34 33 37 45 50 50 49 45 41 40 38 37 33 30 28
154 152 148 157 175 152 152 165 157 151 137 136 136 129 122 115 110 110 116 118 109 106 104 101 99 98 98 99 101 101 95 89 85 79 71 64 58 53 50 52 54 56 58 60 60 60 61 62 66 70 72 73 74 78 83 86 86 85 84 81 78 74 68 65 61 57 51 44 42 37 36 34 30 44 50 49 48 47 44 44 44 42 40 37 31
142 148 151 151 164 156 167 171 161 144 142 135 136 133 126 121 114 114 112 111 107 104 104 100 98 101 100 98 96 96 94 90 84 78 72 67 61 56 53 53 56 57 60 62 63 62 63 65 69 71 74 74 76 81 85 85 85 85 81 77 74 72 69 66 62 61 55 38 36 43 38 28 28 41 53 51 50 49 48 46 46 46 44 42 41
153 137 143 148 159 159 173 165 155 149 146 140 139 138 132 125 120 116 113 108 108 105 102 103 102 100 98 97 97 94 92 90 84 79 75 69 64 60 56 55 56 58 60 63 66 66 65 68 69 72 73 72 76 83 86 86 86 84 81 77 76 72 68 62 56 48 37 37 29 33 44 29 14 36 53 52 51 50 49 48 45 43 42 42 44
159 131 147 159 155 173 161 161 156 152 148 144 141 138 135 128 127 122 115 109 107 108 105 101 100 98 98 97 95 95 94 91 86 83 77 72 68 63 60 59 58 59 61 64 66 68 70 70 70 73 73 74 78 82 84 86 84 81 79 78 73 67 62 59 56 46 42 37 32 26 49 42 17 34 52 52 52 51 49 48 48 45 42 41 42
168 151 140 170 165 162 166 156 157 153 150 143 145 133 130 129 119 117 114 110 110 110 108 103 99 96 97 97 97 97 95 92 88 85 79 74 69 65 62 60 62 60 61 64 66 69 73 73 72 72 73 76 79 80 81 78 77 76 76 73 66 61 56 53 49 46 45 41 37 32 30 28 21 48 52 52 52 51 50 47 46 46 45 44 44
166 160 147 112 136 162 172 156 156 157 148 147 142 132 127 125 121 118 119 117 117 116 110 103 100 99 101 101 101 101 101 96 93 89 83 77 71 65 61 60 59 60 61 64 66 70 73 73 73 73 74 76 79 80 79 77 74 73 69 64 61 57 51 47 45 41 38 37 36 32 30 21 21 52 53 54 53 50 49 49 48 48 47 46 46
164 134 131 143 124 224 180 149 131 124 154 147 145 140 134 136 134 127 126 128 128 121 117 111 106 109 110 108 108 108 106 103 98 93 86 80 74 67 62 62 61 60 61 63 66 70 72 72 72 72 74 76 76 75 72 68 66 64 61 58 54 51 50 47 41 38 34 30 31 28 25 24 29 52 53 51 52 52 46 48 48 47 48 47 46
133 131 159 163 150 159 160 176 153 135 174 151 133 147 141 140 140 139 135 138 137 134 127 122 123 122 121 120 117 115 112 109 104 98 90 82 77 71 68 66 65 65 64 65 67 68 70 71 72 73 74 74 73 70 68 66 63 61 57 54 50 48 46 45 43 37 33 26 20 15 17 31 46 51 54 51 50 50 47 47 48 44 43 45 44
140 137 143 146 146 128 177 294 190 160 161 150 144 178 152 145 148 145 143 140 142 138 132 125 125 122 119 117 117 116 113 110 106 100 93 85 79 76 71 67 67 68 67 67 68 67 68 68 69 69 69 70 68 67 65 62 60 57 56 53 50 49 49 48 41 36 32 24 15 10 351 17 56 52 49 51 48 48 45 40 44 46 38 42 45
51 101 115 71 126 131 136 173 334 139 127 151 178 163 155 149 148 149 141 146 145 139 135 133 127 123 123 124 124 120 115 112 109 104 95 87 81 77 72 69 68 68 68 69 68 68 67 66 66 66 67 69 69 68 66 64 61 59 57 54 53 52 50 54 46 37 32 25 13 8 3 331 47 55 51 48 47 43 43 45 43 43 41 39 39
50 43 67 56 48 55 36 48 134 156 141 144 148 156 139 141 149 143 138 140 141 140 139 134 126 122 125 126 121 116 113 117 115 108 100 91 86 80 75 73 72 70 69 69 68 67 67 67 67 68 68 69 69 68 67 64 61 58 57 56 54 53 51 51 48 36 34 26 19 10 2 28 39 50 48 47 44 46 48 45 43 44 42 39 39
50 49 49 37 56 43 36 21 24 214 135 162 135 144 108 108 123 122 127 134 134 129 123 119 124 115 92 90 105 110 118 119 118 111 105 96 90 87 83 80 78 76 75 73 71 69 68 68 69 70 71 71 70 69 67 64 62 60 58 57 56 55 53 53 50 36 32 30 22 13 11 43 41 46 42 44 44 40 37 46 44 43 47 40 39
53 47 42 16 49 50 46 32 19 351 122 143 131 156 115 137 110 95 111 133 134 130 125 119 129 121 105 102 111 111 112 114 116 111 104 101 91 88 91 87 85 83 83 81 77 74 72 73 73 72 71 71 71 69 68 66 64 61 59 58 55 53 51 51 48 39 35 28 22 19 28 45 44 44 41 44 42 43 45 40 38 36 34 34 29
59 35 37 5 36 67 50 37 21 357 345 15 156 154 157 165 124 84 80 77 117 129 119 110 107 100 93 92 90 92 89 99 115 117 115 101 95 96 96 94 92 89 87 86 83 79 77 76 77 76 73 71 69 68 67 65 62 58 56 54 51 48 47 46 46 41 32 25 22 25 35 46 47 45 45 47 45 44 42 45 46 46 45 44 41
34 49 44 5 348 56 39 32 12 344 340 2 198 153 139 160 158 114 85 80 104 115 113 102 96 96 104 104 103 86 76 107 120 123 112 105 107 104 102 99 98 94 91 88 85 82 79 78 80 79 76 70 63 58 57 59 57 56 53 51 48 48 42 43 40 36 28 19 17 36 40 47 49 48 48 47 46 42 42 42 41 41 43 43 41
16 2 31 36 16 32 36 12 346 333 3 14 335 157 132 142 145 155 140 92 72 119 125 116 116 115 115 120 109 107 107 83 120 123 110 112 108 109 103 103 101 98 95 91 87 86 84 80 77 75 75 72 65 60 52 51 52 54 53 51 51 49 43 44 43 36 31 18 17 42 46 49 51 51 50 50 47 44 43 42 41 40 39 39 39
11 5 357 15 12 16 36 9 345 342 352 9 356 262 126 134 141 137 131 91 80 112 132 120 122 127 134 116 106 118 131 101 106 132 128 132 126 117 114 107 97 88 87 86 89 90 90 87 81 77 77 76 71 69 66 61 53 50 52 54 57 51 49 46 45 39 32 27 21 38 49 51 50 52 51 49 48 48 46 44 43 43 42 40 39
27 2 328 340 2 23 3 335 339 347 354 337 336 278 127 128 150 140 136 162 140 142 133 129 136 136 136 118 108 112 126 115 123 124 126 128 120 122 121 107 94 82 78 71 74 81 82 79 80 76 72 75 78 71 72 68 64 59 58 58 59 54 52 47 44 39 31 27 29 32 47 49 50 49 50 48 47 45 46 47 44 44 44 42 40
338 294 297 327 337 9 0 336 332 322 331 315 344 310 70 134 185 161 147 156 145 149 138 139 142 138 127 129 133 119 130 115 113 136 156 146 141 131 118 113 108 101 93 86 86 82 79 73 66 65 61 71 73 68 70 72 69 68 64 60 61 57 54 48 45 41 33 31 29 32 39 47 48 48 49 49 48 45 43 46 45 44 43 42 41
310 1 343 339 347 338 328 312 313 302 286 314 326 299 4 143 179 149 152 161 157 148 149 148 146 142 143 163 135 136 138 134 124 146 167 159 152 132 114 111 104 97 95 95 81 83 81 78 72 70 66 69 74 76 70 76 82 75 71 65 64 62 57 50 46 45 36 32 30 34 38 43 46 46 47 48 48 46 44 44 45 44 43 42 41
350 318 313 320 321 326 315 317 301 280 275 273 253 243 50 233 198 177 157 165 155 151 156 142 144 140 144 151 132 140 136 123 129 123 55 151 133 111 114 110 107 99 104 106 90 82 94 90 83 78 77 77 71 70 74 72 76 84 78 74 72 70 64 56 50 47 40 36 28 32 40 43 45 46 46 47 47 45 44 43 43 44 42 42 41
17 319 334 331 316 303 298 313 306 298 277 243 312 33 50 63 125 175 157 136 133 128 91 120 104 128 129 129 123 131 130 132 128 109 101 60 77 111 108 98 90 90 97 98 101 89 82 92 97 84 79 77 83 75 76 74 71 78 84 79 80 76 71 64 58 50 45 41 36 30 40 43 45 46 48 47 46 44 43 42 43 43 43 41 40
304 310 310 333 300 282 310 315 303 291 274 247 121 148 105 78 69 67 123 124 108 70 128 101 111 85 126 126 127 129 119 120 113 113 113 123 124 114 106 97 91 89 89 83 101 103 90 93 93 86 80 80 81 81 83 76 74 69 80 82 80 80 77 72 64 55 48 45 40 29 37 40 44 46 47 48 49 47 45 43 42 41 43 45 46
215 303 328 300 301 329 320 301 289 289 257 154 123 121 105 95 81 76 105 99 92 113 120 110 107 99 152 132 122 122 126 117 109 102 115 113 95 91 94 99 94 85 92 90 95 101 100 95 92 89 87 85 85 82 83 81 78 74 73 82 74 74 73 71 64 56 52 45 36 31 31 37 38 42 45 46 47 47 46 45 43 41 40 42 44
164 242 275 277 300 296 283 281 270 260 242 127 107 79 117 107 112 130 77 84 86 58 102 91 121 100 19 97 114 113 114 111 105 99 103 83 76 84 80 80 80 80 92 94 78 93 94 89 89 90 86 85 84 88 89 87 81 76 73 77 75 73 69 67 66 58 51 41 37 34 28 30 35 36 39 42 44 44 44 44 44 42 40 38 38
158 230 241 294 291 285 288 279 259 222 163 114 107 112 90 120 112 64 77 57 78 103 97 89 88 92 87 66 91 97 106 98 102 97 87 95 91 86 82 83 80 79 84 99 94 90 96 92 88 89 89 91 90 88 89 89 82 80 75 77 74 70 65 63 63 57 52 44 37 35 34 28 30 34 34 37 40 42 42 42 41 41 40 39 40
185 219 243 302 291 301 309 318 99 105 113 115 112 108 89 111 99 99 93 81 61 39 101 97 75 81 90 80 93 101 103 113 106 105 106 99 102 100 86 82 82 88 94 101 103 102 98 97 89 93 93 94 94 90 87 88 88 78 74 72 72 66 62 62 61 56 50 46 40 37 37 33 31 29 30 33 35 39 40 40 39 39 39 37 36
193 212 258 254 295 290 308 2 69 74 91 92 100 94 58 75 93 62 103 84 62 62 82 95 93 79 82 84 88 105 109 111 118 109 108 106 102 102 107 93 89 87 87 94 97 96 101 98 101 95 92 98 97 94 94 87 85 80 71 70 71 70 65 62 54 55 52 49 40 42 36 37 34 32 26 28 29 33 36 38 37 36 37 36 34
182 200 215 250 285 358 7 79 84 84 92 91 87 83 62 17 101 79 70 88 73 59 52 82 94 94 83 74 77 94 103 107 106 111 101 103 102 99 90 96 100 94 86 70 97 81 83 88 103 101 98 91 92 88 90 88 84 78 72 71 74 73 66 64 57 53 50 46 46 41 39 37 34 36 30 29 22 25 31 33 34 34 34 34 34
188 184 200 203 124 44 60 95 81 72 78 89 77 67 79 45 73 77 71 82 72 63 54 41 88 96 88 79 62 82 90 91 95 103 103 98 98 94 93 93 91 91 88 88 78 91 88 82 63 111 111 103 100 88 80 86 82 79 73 68 68 67 71 62 56 55 46 51 47 43 39 37 36 35 34 33 31 23 31 32 32 32 32 32 32
164 158 178 172 110 91 61 70 79 90 104 82 80 75 73 50 81 72 67 73 76 72 53 48 60 75 82 82 79 77 88 86 88 91 104 104 99 95 89 95 94 89 87 80 80 77 100 92 58 30 107 111 99 93 84 83 83 78 75 72 62 66 63 57 54 56 51 53 46 43 41 38 39 38 36 36 34 31 29 35 34 32 32 33 33
160 171 184 179 143 121 90 86 97 88 62 92 92 91 81 70 60 82 70 55 64 59 57 53 61 69 69 75 80 76 94 88 86 96 96 92 94 98 95 91 95 94 94 83 81 70 74 97 87 49 72 103 101 102 97 90 85 81 72 67 62 62 60 58 58 51 52 50 46 44 39 42 40 38 36 36 35 32 31 29 32 31 29 33 34
173 176 175 150 132 122 108 106 106 107 97 89 101 102 94 87 78 71 70 59 55 52 49 66 65 79 66 67 89 81 71 91 95 100 97 96 93 88 91 82 89 97 95 92 85 92 92 89 100 87 64 66 98 100 108 100 89 82 75 62 65 62 60 60 57 55 49 49 48 42 47 38 41 36 35 36 33 35 33 30 29 27 20 26 30
179 176 163 151 139 131 117 114 117 119 117 109 113 113 103 112 99 85 74 65 66 70 61 64 62 70 75 63 77 85 71 81 87 91 97 98 96 90 90 80 87 99 100 93 97 103 110 102 95 103 97 80 64 87 103 104 87 80 79 68 58 63 58 59 57 52 49 42 40 41 45 39 44 38 38 34 39 38 36 33 33 28 27 23 27
182 176 165 163 157 150 148 147 143 140 146 137 143 134 124 118 89 92 104 87 68 69 66 37 36 55 73 68 72 83 86 87 83 94 98 97 93 92 91 83 91 97 95 96 105 101 96 106 104 90 111 110 73 32 35 80 109 78 70 72 63 45 65 63 57 48 43 35 36 49 37 43 37 37 27 36 40 39 37 34 32 32 29 28 23
189 176 175 173 166 159 160 150 142 150 152 145 146 109 73 127 131 124 119 103 92 76 79 49 58 69 55 66 78 80 85 83 85 91 93 101 106 101 95 99 104 95 89 95 92 95 104 108 119 89 24 99 89 3 340 60 48 132 128 94 61 49 69 60 58 40 37 31 37 49 39 43 36 31 26 38 38 37 37 35 36 36 33 30 26
182 182 179 170 168 165 164 157 155 150 140 119 113 103 94 97 103 113 104 97 56 62 69 81 79 76 63 25 60 71 81 78 81 88 97 96 105 108 104 104 95 107 104 90 92 89 95 110 117 123 107 59 95 35 13 12 136 123 107 95 143 71 331 6 6 40 18 30 33 42 41 44 35 31 31 41 35 31 33 31 38 37 33 32 28
180 184 182 177 171 171 165 163 160 154 136 106 101 81 81 83 78 89 86 88 119 96 83 52 79 81 59 34 40 36 73 83 79 91 96 97 103 105 105 98 89 84 109 110 103 100 99 101 103 105 123 105 56 39 16 19 105 133 97 96 182 116 100 29 353 326 20 27 33 30 35 40 33 30 34 41 34 36 31 34 41 41 37 36 32
187 186 182 181 173 172 168 164 154 146 133 125 115 116 112 93 93 88 95 102 93 92 88 49 39 77 75 33 39 21 78 87 87 87 101 105 101 105 105 102 99 88 96 104 102 105 97 95 103 103 85 130 111 115 29 33 53 5 141 116 61 58 166 180 127 19 1 7 356 7 40 39 32 31 37 35 39 45 40 41 43 42 40 37 31
192 187 180 179 170 168 162 155 143 135 137 133 135 138 140 135 133 123 121 117 120 132 133 131 131 80 83 86 56 36 55 74 87 91 98 105 102 101 104 103 98 96 98 103 109 99 81 79 63 108 93 68 127 113 93 39 63 50 52 84 128 164 171 218 93 157 318 171 305 2 24 27 43 28 28 26 22 20 32 40 39 40 37 35 30
191 174 174 179 169 161 156 151 147 140 139 144 149 148 149 159 153 155 154 154 141 100 73 54 97 93 92 80 68 37 55 92 86 91 96 98 100 99 98 98 103 106 107 103 93 91 89 83 76 85 92 120 119 107 115 139 81 43 39 61 65 51 97 129 156 97 65 326 14 9 356 353 12 38 29 20 14 21 22 39 42 45 40 35 30
173 168 175 174 165 158 152 149 143 143 147 151 157 164 155 157 143 130 128 132 140 141 136 121 102 99 97 86 91 80 70 72 101 92 96 101 104 97 100 104 101 94 96 89 99 103 99 85 84 90 86 72 97 117 126 118 114 55 17 57 59 59 51 61 76 123 138 147 302 337 314 341 347 50 51 17 10 20 21 27 45 46 48 35 33
171 175 174 165 155 151 150 146 146 146 152 157 159 165 160 153 145 139 124 94 108 119 120 118 113 116 105 101 101 98 88 74 79 102 97 99 97 108 109 103 98 92 90 93 89 93 96 101 91 83 82 69 70 102 101 97 98 132 99 48 55 55 52 52 47 57 119 121 267 287 308 325 343 321 13 32 357 15 27 41 60 49 41 35 29
169 162 152 151 153 152 152 151 151 151 153 155 161 159 150 144 143 140 135 129 126 110 109 120 126 126 118 123 119 115 114 103 90 91 96 94 106 109 103 100 100 101 98 104 103 92 89 85 84 91 92 85 61 76 95 94 82 71 76 132 104 63 60 40 30 70 47 76 114 330 291 342 354 305 194 34 3 356 23 64 67 51 41 40 29
164 158 158 159 156 158 156 159 159 155 160 161 164 165 155 156 148 144 142 130 133 133 130 123 127 128 135 138 136 134 127 118 111 91 98 115 106 101 102 101 103 106 107 107 104 105 99 97 95 90 88 101 100 98 90 82 89 82 74 98 128 145 163 142 153 106 128 108 53 341 312 246 240 309 310 353 341 355 95 69 88 63 54 37 31